OpenBCM V1.13 (Linux)

Packet Radio Mailbox

DB0FHN

[JN59NK Nuernberg]

 Login: GUEST





  
LU9DCE > KEP      20.07.19 20:33l 245 Lines 12029 Bytes #999 (0) @ WW
BID : 28788_LU9DCE
Read: DF7EAV DJ6UX GUEST
Subj: TLE 20 07
Path: DB0FHN<DB0BLO<DB0ERF<DB0RES<DB0OVN<DB0GOS<ON0AR<VE2PKT<N3HYM<LU9DCE
Sent: 190720/1800Z 28788@LU9DCE.TOR.BA.ARG.SOAM LinBPQ6.0.18

            __    _  _  ___  ____   ___  ____    ____  ____  ____
           (  )  / )( \/ _ \(    \ / __)(  __)  (  _ \(  _ \/ ___)
           / (_/\) \/ (\__  )) D (( (__  ) _)    ) _ ( ) _ (\___ \
           \____/\____/(___/(____/ \___)(____)  (____/(____/(____/
               ESTACION DE PACKET RADIO - BUENOS AIRES (GF05OM)
                   BOLETINES INFORMATIVOS PROGRAMADOS (BIP)
                  SLACKWARE LINUX - HELLOCODELINUX@GMAIL.COM

+----------------------------------------------------------------------------+
OSCAR 7
1  7530U 74089B   19201.14845091 -.00000042  00000-0  20093-4 0  9993
2  7530 101.7457 168.4897 0011773 287.8014 138.0644 12.53638874 44465
OSCAR 11 (UoSAT 2)
1 14781U 84021B   19200.87044456 +.00000011 +00000-0 +75087-5 0  9990
2 14781 097.6091 224.1120 0007658 208.0963 151.9839 14.83096029882388
OSCAR 19 (LUSAT)
1 20442U 90005G   19201.09133200 -.00000002  00000-0  15670-4 0  9993
2 20442  98.6496 143.0411 0012836  59.7043 300.5409 14.32929087540878
EYESAT A
1 22825U 93061C   19200.91492007 -.00000028 +00000-0 +73461-5 0  9999
2 22825 098.9043 190.2663 0007287 268.3588 091.6759 14.30062511346143
ITAMSAT
1 22826U 93061D   19200.90931497 -.00000025 +00000-0 +82272-5 0  9997
2 22826 098.8983 190.2481 0007823 255.5010 104.5304 14.30396247346368
RADIO ROSTO
1 23439U 94085A   19200.82383149 -.00000025 +00000-0 +50401-3 0  9998
2 23439 064.8178 065.7812 0146178 107.1363 254.5626 11.27568479011400
JAS 2
1 24278U 96046B   19200.90284596 -.00000028 +00000-0 +56913-5 0  9993
2 24278 098.5416 350.0838 0350790 158.9310 202.6697 13.53092545131774
TECHSAT 1B
1 25397U 98043D   19200.82422095 -.00000018  00000-0  11409-4 0  9993
2 25397  98.6896 140.5931 0000851   9.4387 350.6807 14.23667828 92302
ISS (ZARYA)
1 25544U 98067A   19201.50396454 -.00000187  00000-0  46907-5 0  9997
2 25544  51.6424 195.9766 0006841 159.5429 343.7188 15.50989072180426
PCSAT
1 26931U 01043C   19200.75233999 -.00000035  00000-0  18300-4 0  9993
2 26931  67.0516 283.5291 0007167 276.8839  83.1446 14.30547211929411
SAUDISAT 1C
1 27607U 02058C   19200.79080352 -.00000046  00000-0  14408-4 0  9995
2 27607  64.5558 314.5145 0080266 250.5444 108.6973 14.75559249891627
CUTE-1
1 27844U 03031E   19201.03090901  .00000022  00000-0  29452-4 0  9997
2 27844  98.6833 208.7752 0008788 305.1978  54.8376 14.22185819832747
CUBESAT XI 4
1 27848U 03031J   19201.52459249  .00000012  00000-0  25445-4 0  9996
2 27848  98.6910 209.7685 0008852 316.2883  43.7593 14.21780226832664
MOZHAYETS 4
1 27939U 03042A   19201.56434715  .00000040  00000-0  15695-4 0  9991
2 27939  98.0451 336.7647 0012199 331.0860  28.9671 14.66791153845214
CUBESAT XI 5
1 28895U 05043F   19200.81826852  .00000064  00000-0  21181-4 0  9993
2 28895  97.9635 342.4894 0015483 251.7127 108.2391 14.63675783732032
CUTE-1.7+APD II
1 32785U 08021C   19200.81377074  .00000104  00000-0  16858-4 0  9992
2 32785  97.5497 199.0610 0013692 153.4848 206.7073 14.88321550608318
DELFI C3
1 32789U 08021G   19201.35718392  .00001028  00000-0  72628-4 0  9991
2 32789  97.4620 250.0639 0012686  24.8991 335.2846 15.07005555611732
SEEDS
1 32791U 08021J   19200.71274112 +.00000151 +00000-0 +20627-4 0  9998
2 32791 097.5276 204.9697 0014586 130.1656 230.0842 14.90836643608651
YUBELEINY
1 32953U 08025A   19201.51623612  .00000021  00000-0  75656-4 0  9992
2 32953  82.5027 124.9770 0020429  60.0233 300.2870 12.43090703506267
PRISM (HITOMI)
1 33493U 09002B   19201.35224656  .00000106  00000-0  14809-4 0  9992
2 33493  98.1217 123.5086 0016791  78.5647 281.7458 14.96682280569885
KKS-1 (KISEKI)
1 33499U 09002H   19201.20958622  .00000026  00000-0  11824-4 0  9994
2 33499  98.3486  40.9191 0010467 104.1843 256.0529 14.75449017563871
SWISSCUBE
1 35932U 09051B   19200.72158466  .00000072  00000-0  27254-4 0  9991
2 35932  98.5908   7.6065 0008822  73.9269 286.2899 14.56293253521296
BEESAT
1 35933U 09051C   19201.40970116  .00000048  00000-0  21769-4 0  9990
2 35933  98.5934  10.0876 0007070  83.8137 276.3865 14.56381448521503
ITUPSAT 1
1 35935U 09051E   19200.72950040  .00000039  00000-0  20111-4 0  9990
2 35935  98.6043   9.6229 0009377  82.7191 277.5071 14.55540206521154
XIWANG-1 (HOPE-1)
1 36122U 09072B   19201.20165767 -.00000030  00000-0  31858-4 0  9992
2 36122 100.0717 202.0981 0006988 272.9172  87.1157 13.16350352461026
TISAT 1
1 36799U 10035E   19200.95323149  .00000137  00000-0  19914-4 0  9990
2 36799  98.1596 354.1483 0011884 350.2533   9.8452 14.91119569489426
JUGNU
1 37839U 11058B   19200.87932036 +.00000299 +00000-0 +17432-4 0  9996
2 37839 019.9605 145.6491 0018714 311.1521 079.4653 14.12654301401564
SRMSAT
1 37841U 11058D   19200.35588066  .00000271  00000-0  35135-5 0  9993
2 37841  19.9705 206.2367 0011817 172.4931 316.3225 14.10635172401026
M-CUBED/EXP-1 PRIME
1 37855U 11061F   19200.70363384 +.00000944 +00000-0 +55139-4 0  9997
2 37855 101.7116 112.2187 0173496 344.9627 014.6463 15.05485132420974
HORYU 2
1 38340U 12025D   19201.10439649  .00000085  00000-0  20474-4 0  9991
2 38340  98.3268 240.6344 0012079  30.5777 329.6133 14.75729402385797
STRAND 1
1 39090U 13009E   19201.50973382  .00000006  00000-0  17237-4 0  9994
2 39090  98.4859  46.9302 0008868 186.9428 173.1636 14.35090576334959
SOMP
1 39134U 13015E   19200.67424797  .00000447  00000-0  29864-4 0  9996
2 39134  64.8635 280.0576 0032465 298.2925  61.4928 15.20203370345307
BEESAT 3
1 39135U 13015F   19201.50810044  .00000369  00000-0  28185-4 0  9992
2 39135  64.8701 296.1013 0025553 315.3750  44.5319 15.17508859345079
BEESAT 2
1 39136U 13015G   19200.89782685 +.00000277 +00000-0 +23969-4 0  9996
2 39136 064.8711 301.9849 0020756 299.2540 060.6510 15.16936350344510
CUBEBUG 1
1 39153U 13018D   19201.25670997  .00000083  00000-0  17797-4 0  9998
2 39153  97.9799 299.2060 0018424  96.2393 264.0918 14.80575599336490
ZACUBE
1 39417U 13066B   19201.52469475  .00000100  00000-0  19051-4 0  9996
2 39417  97.5617 213.2370 0057419 290.2409  69.2636 14.81125955305754
TRITON 1
1 39427U 13066M   19201.15389904  .00000149  00000-0  31445-4 0  9998
2 39427  97.6780 176.5901 0115296  65.0581 296.2553 14.67852349302952
GOMX 1
1 39430U 13066Q   19201.50756965  .00000091  00000-0  25198-4 0  9990
2 39430  97.7494 155.9691 0151516 153.4700 207.4345 14.59261648301247
HUMSAT D
1 39433U 13066T   19201.13049401  .00000301  00000-0  34675-4 0  9996
2 39433  97.5513 247.3488 0030456 192.8364 167.2083 14.92209005307763
CUBEBUG 2
1 39440U 13066AA  19200.87057119  .00000114  00000-0  22939-4 0  9991
2 39440  97.6025 197.4670 0079867 344.8424  15.0394 14.75863887304579
FUNCUBE 1
1 39444U 13066AE  19201.03503792  .00000139  00000-0  23622-4 0  9994
2 39444  97.5596 214.7511 0056488 285.4485  74.0494 14.81946432304574
UWE-3
1 39446U 13066AG  19201.49808649  .00000105  00000-0  20846-4 0  9993
2 39446  97.5811 205.1156 0068947 317.2993  42.2873 14.78398522303963
SPROUT
1 39770U 14029E   19201.25070693  .00000276  00000-0  36689-4 0  9998
2 39770  97.8859 304.3403 0008899 351.0654   9.0470 14.87363962279523
UNISAT 6
1 40012U 14033C   19201.17416953  .00000096  00000-0  21723-4 0  9991
2 40012  97.7537  66.4232 0058380 357.8301   2.2645 14.73986646273321
DUCHIFAT 1
1 40021U 14033M   19200.75796058  .00000182  00000-0  24464-4 0  9992
2 40021  97.9234 125.4547 0011865 313.1662  46.8563 14.90644188276174
QB50P1
1 40025U 14033R   19200.81507937  .00000121  00000-0  18858-4 0  9992
2 40025  97.9050 120.4493 0011572 323.1731  36.8690 14.88954499275953
CHUBUSAT 1
1 40300U 14070C   19201.27284071  .00000325  00000-0  17176-4 0  9999
2 40300  97.3254 274.6540 0019471 308.3861  92.4089 15.22109141260824
NUDT-PHONESAT
1 40900U 15049B   19201.30902013  .00001219  00000-0  54958-4 0  9991
2 40900  97.4356 210.3322 0014497  75.8067 340.2175 15.22856449212474
ZDPS 2A
1 40901U 15049C   19201.52563336  .00000435  00000-0  24850-4 0  9994
2 40901  97.4587 206.8869 0015074  91.8022  26.1285 15.17752900212066
ZDPS 2B
1 40902U 15049D   19201.49483236  .00000680  00000-0  37144-4 0  9993
2 40902  97.4535 204.3379 0015169  89.4421  61.5156 15.17578739212033
XW-2A
1 40903U 15049E   19201.45209162  .00001112  00000-0  28110-4 0  9998
2 40903  97.3354 244.3927 0014643  36.3132  71.8154 15.41923039215142
KAITUO 1A
1 40904U 15049F   19201.50573611  .00000054  00000-0  63528-5 0  9995
2 40904  97.4663 202.9684 0016234  96.8611  54.7867 15.15376625211813
OBJECT G
1 40905U 15049G   19201.53575704  .00000500  00000-0  30783-4 0  9996
2 40905  97.4702 200.5191 0017197  91.6932  23.1724 15.14306577211699
XW-2C
1 40906U 15049H   19201.43164506  .00000243  00000-0  16219-4 0  9992
2 40906  97.4667 202.9827 0016397  89.2916  48.4009 15.15692693211805
XW-2D
1 40907U 15049J   19201.40023733  .00000604  00000-0  34956-4 0  9995
2 40907  97.4646 202.6306 0015859  86.6578  23.2888 15.15884864211819
LILACSAT 2
1 40908U 15049K   19201.52510850  .00000312  00000-0  20851-4 0  9995
2 40908  97.4780 201.5685 0017529  92.2915  24.7269 15.13814677211622
XW-2F
1 40910U 15049M   19201.53159207  .00000721  00000-0  39433-4 0  9994
2 40910  97.4617 204.7906 0016524  79.8920  38.1902 15.17327167211840
XW-2B
1 40911U 15049N   19201.36785333  .00000175  00000-0  12583-4 0  9991
2 40911  97.4669 203.2525 0015611  87.7676  19.4836 15.15811532211706
KAITUO 1B
1 40912U 15049P   19201.38050175  .00000575  00000-0  30141-4 0  9997
2 40912  97.4487 208.3207 0016524  63.5595  43.5553 15.19640928212128
TIANWANG 1C (TW-1C)
1 40926U 15051B   19201.41512941  .00007109  00000-0  10280-3 0  9994
2 40926  97.1329 247.5536 0006309 245.9851 172.0572 15.56211255215092
